Home   Weather   Fairfield   Past weeks
Flag for USA

Past Weather in Fairfield, Maine, USA — Yesterday and Last 2 Weeks

Now
22 °F

Clear.


Feels Like: 14 °F
Forecast: 26 / 17 °F
Wind: 6 mph from Northwest

Location: Augusta State Airport

Current Time: Dec 7, 2019 at 1:24:41 am

Latest Report: Dec 7, 2019 at 12:53 am


Visibility: 10 mi

Pressure: 30.05 "Hg

Humidity: 96%

Dew Point: 21 °F

Location of FairfieldLocation

Past Weather in Fairfield — Graph

°F

Fairfield Temperature Yesterday

Maximum temperature yesterday: 29 °F (at 11:53 am)
Minimum temperature yesterday: 22 °F (at 6:53 am)
Average temperature yesterday: 26 °F

High & Low Weather Summary for the Past Weeks

 TemperatureHumidityPressure
High51 °F (Nov 26, 12:53 pm)100% (Nov 22, 2:53 am)30.11 "Hg (Nov 22, 2:53 am)
Low13 °F (Nov 30, 5:53 am)36% (Dec 1, 12:53 pm)29.20 "Hg (Nov 24, 9:12 pm)
Average31 °F76%29.71 "Hg
* Reported Nov 22 12:03 am — Dec 7 12:04 am, Fairfield. Weather by CustomWeather, © 2019

Note: Actual official high and low records may vary slightly from our data, if they occured in-between our weather recording intervals... More about our weather records

Fairfield Weather History for the Previous 24 Hours

Scroll right to see more
 ConditionsComfort  
Time TempWeatherWind HumidityBarometerVisibility
12:04 am
Sat, Dec 7
23 °FPartly cloudy.5 mph96%30.02 "Hg10 mi
11:53 pm
Fri, Dec 6
23 °FPartly cloudy.6 mph96%30.03 "Hg10 mi
10:53 pm24 °FOvercast.5 mph91%30.01 "Hg10 mi
9:53 pm24 °FLight snow. Ice fog.5 mph91%30.00 "Hg4 mi
8:53 pm25 °FLight snow. Ice fog.5 mph88%29.99 "Hg3 mi
7:53 pm25 °FLight snow. Ice fog.3 mph85%29.99 "Hg3 mi
6:53 pm27 °FOvercast.No wind66%29.99 "Hg8 mi
5:53 pm27 °FOvercast.No wind66%29.98 "Hg10 mi
4:53 pm28 °FOvercast.3 mph61%29.97 "Hg10 mi
3:53 pm28 °FOvercast.3 mph58%29.98 "Hg10 mi
2:53 pm29 °FMostly cloudy.No wind58%29.97 "Hg8 mi
1:53 pm29 °FOvercast.No wind58%29.96 "Hg10 mi
12:53 pm29 °FOvercast.5 mph58%29.96 "Hg10 mi
11:53 am29 °FOvercast.6 mph56%29.98 "Hg10 mi
10:53 am28 °FOvercast.8 mph58%29.98 "Hg10 mi
9:53 am27 °FPartly sunny.7 mph61%30.01 "Hg10 mi
8:53 am25 °FPassing clouds.6 mph63%30.02 "Hg10 mi
7:53 am23 °FSunny.8 mph65%30.00 "Hg10 mi
6:53 am22 °FClear.6 mph68%30.00 "Hg10 mi
5:53 am24 °FClear.6 mph62%29.97 "Hg10 mi
4:53 am25 °FClear.13 mph60%29.94 "Hg10 mi
3:53 am25 °FClear.8 mph60%29.92 "Hg10 mi
2:53 am24 °FPassing clouds.6 mph60%29.90 "Hg10 mi
1:53 am25 °FClear.14 mph60%29.88 "Hg10 mi
Weather by CustomWeather, © 2019

See weather overview

Advertising